Regional Weather Roundup
Issued by NWS

Home | Current Version | Previous Version | Text Only | Print | Product List | Glossary On
Versions: 1 2 3 4 5 6 7 8 9 10 11 12 13 14 15 16 17 18 19 20 21 22 23 24 25 26 27 28 29 30 31 32 33 34 35 36 37 38 39 40 41 42 43 44 45 46 47 48 49 50
000
ASUS46 KPQR 291510
RWROR

OREGON REGIONAL WEATHER ROUNDUP
NATIONAL WEATHER SERVICE PORTLAND OR
700 AM PST THU JAN 29 2015

NOTE: "FAIR" INDICATES FEW OR NO CLOUDS BELOW 12,000 FEET WITH
NO SIGNIFICANT WEATHER AND/OR OBSTRUCTIONS TO VISIBILITY.

ORZ001>013-291600-
NORTHWEST OREGON


CITY           SKY/WX    TMP DP  RH WIND       PRES   REMARKS
ASTORIA        PTCLDY    42  40  92 E6        30.29S FOG
NEWPORT        CLEAR     46  45  93 E9        30.29S
PORTLAND       MOCLDY    42  40  92 E5        30.33S
VANCOUVER WA   MOCLDY    39  37  92 CALM      30.32S
SCAPPOOSE      FOG       44  44 100 CALM      30.32S VSB 3/4
HILLSBORO      FOG       44  44 100 CALM      30.31S VSB<1/4
AURORA         MOCLDY    43  39  86 CALM      30.31S
MCMINNVILLE    MOCLDY    43  42  97 N5        30.31S FOG
SALEM          MOCLDY    46  43  89 N3        30.29S
CORVALLIS      PTCLDY    46  43  87 N3        30.30S
EUGENE         CLOUDY    48  46  93 CALM      30.29S FOG
$$

ORZ021-028-291600-
SOUTHWEST OREGON


CITY           SKY/WX    TMP DP  RH WIND       PRES   REMARKS
NORTH BEND     PTCLDY    45  45 100 CALM      30.27R
BROOKINGS      PTCLDY    45  45 100 CALM      30.22S
ROSEBURG       CLOUDY    46  44  93 CALM      30.28S FOG
SEXTON SUMMIT  MOCLDY    47  29  49 CALM      30.23S
MEDFORD        FOG       35  34  96 CALM      30.27S VSB 1/4
$$

ORZ014>016-041-291600-
COLUMBIA GORGE


CITY           SKY/WX    TMP DP  RH WIND       PRES   REMARKS
TROUTDALE      CLOUDY    44  35  70 E22G30    30.31S
THE DALLES     CLOUDY    40  36  86 E6        30.49S
$$

ORZ029>031-041-044-049-050-061>064-502-503-505>511-291600-
EASTERN OREGON


CITY           SKY/WX    TMP DP  RH WIND       PRES   REMARKS
REDMOND        FOG       36  36 100 CALM      30.35R VSB 3/4
BEND           FOG       36  36 100 CALM      30.35S VSB 1/4
PRINEVILLE     CLOUDY    36  36 100 CALM      30.35S FOG
KLAMATH FALLS  PTCLDY    26  23  88 NE3       30.28S
LAKEVIEW       CLEAR     28  27  93 NW8       30.29S WCI  20
HERMISTON      CLOUDY    37  35  92 CALM      30.47S FOG
PENDLETON      CLOUDY    34  32  92 CALM      30.43S FOG
JOHN DAY       PTCLDY    35  32  88 E6        30.35S WCI  30
MEACHAM        PTCLDY    24  21  88 CALM      30.35R
LA GRANDE      PTCLDY    27  18  69 N3        30.39S
BAKER CITY     PTCLDY    24  23  96 W5        30.41S WCI  18
BURNS          PTCLDY    26  23  88 CALM      30.35S
ROME             N/A     29  27  92 NE5       30.34S WCI  24
ONTARIO        CLOUDY    34  32  92 NE5       30.47S WCI  30
$$



USA.gov is the U.S. government's official web portal to all federal, state and local government web resources and services.